Theta_e
312 319 323 323 321 320 322 323 322 322 321 320 320 321 321 321 321 321 322 322 321 321 322 326 334 341 356 357 356 357 356 357 357 358 355 355 353 353 351 349 350 351 349 349
311 313 317 320 321 322 322 324 324 323 322 320 321 321 321 321 321 321 322 322 322 322 322 326 333 344 350 356 355 356 357 358 357 356 355 353 353 351 349 349 351 349 349 349
313 311 312 317 321 322 322 323 324 324 322 322 321 322 322 322 322 321 322 322 322 322 323 327 340 348 351 354 355 355 356 357 355 354 354 354 352 350 351 350 349 349 349 349
315 312 313 313 317 320 323 322 323 322 323 322 321 324 324 323 322 322 322 322 323 323 323 331 340 350 353 354 354 355 355 355 355 355 354 352 351 350 350 349 348 347 346 347
318 314 315 315 314 318 321 321 322 324 324 323 322 323 325 323 323 322 322 322 323 323 324 328 334 339 347 354 354 354 354 353 353 354 351 351 350 350 349 348 346 346 342 340
311 314 314 316 315 316 319 321 322 323 324 325 325 323 324 325 324 323 323 322 322 323 323 324 325 333 341 347 352 352 352 352 350 350 351 351 352 349 346 346 344 342 340 335
311 310 314 315 316 315 318 322 324 324 323 326 325 323 326 326 324 323 323 322 322 323 323 324 330 340 342 344 346 348 348 347 348 347 348 348 348 348 345 344 341 337 333 330
316 310 314 315 316 317 320 324 327 327 326 324 324 324 323 328 327 324 322 325 327 328 326 326 334 338 340 343 344 345 345 345 344 342 341 342 342 339 336 334 332 330 328 325
319 311 313 315 319 318 319 323 324 321 322 323 325 329 335 333 333 334 334 333 332 330 333 337 338 337 340 340 341 341 341 339 338 336 335 334 332 331 329 327 326 324 322 320
321 314 312 317 318 320 321 322 325 323 325 324 324 330 333 334 336 335 335 333 334 334 334 335 337 338 338 338 337 336 335 334 333 332 330 328 326 325 324 323 321 320 319 319
320 322 317 315 317 323 321 322 324 323 323 327 327 328 330 333 334 334 332 331 332 333 333 334 335 334 334 334 333 332 331 329 327 325 324 323 322 321 320 320 319 319 318 317
318 323 318 317 319 318 318 321 323 325 327 326 326 340 330 333 334 332 332 332 333 332 332 333 332 330 329 328 327 326 325 323 322 321 321 320 320 320 319 318 317 316 316 315
319 324 326 323 320 321 322 321 320 325 328 328 329 345 336 333 332 331 331 329 330 330 329 328 328 327 326 324 323 322 321 320 320 319 319 319 318 318 317 316 315 314 314 314
319 323 324 326 323 324 325 322 322 325 328 326 331 339 334 331 330 329 327 326 325 325 325 325 324 323 321 320 319 318 317 317 317 317 317 317 316 315 314 314 314 314 314 314
317 326 319 323 321 319 321 325 323 325 325 328 338 337 332 328 326 325 324 323 323 323 323 322 321 321 318 317 316 315 315 315 314 314 314 313 313 313 313 313 313 314 314 315
320 330 323 322 323 326 323 322 321 322 324 327 332 336 329 324 323 323 323 323 323 322 321 321 319 318 316 315 314 313 312 312 312 311 311 311 311 312 312 312 313 314 315 315
323 326 325 330 327 322 326 322 323 323 323 327 337 330 325 324 323 323 323 323 322 321 320 318 317 315 313 312 311 311 310 310 310 310 310 310 310 311 311 312 313 313 313 313
321 326 329 330 329 332 323 323 323 324 333 332 328 325 324 323 322 322 322 321 320 318 316 315 313 312 311 310 309 309 309 309 309 309 309 309 309 310 310 311 311 312 312 312
320 330 331 331 330 328 326 324 324 326 334 328 325 322 321 320 320 319 319 317 317 315 313 311 310 309 308 308 308 308 308 309 308 308 308 308 308 308 309 309 310 310 311 312
328 328 330 329 335 336 323 325 324 325 334 324 322 321 319 319 322 317 314 312 311 308 306 307 308 307 307 307 308 308 308 308 307 307 306 307 307 307 307 308 309 309 310 311
326 323 333 332 334 322 314 318 324 332 335 324 322 320 321 325 317 312 310 308 306 304 303 302 303 304 304 304 306 307 306 306 305 306 306 306 306 306 307 308 309 309 310 311
318 324 324 331 328 330 310 325 330 328 330 325 322 321 315 311 309 308 306 306 305 304 303 302 300 301 301 303 305 305 304 304 304 305 305 305 305 306 306 307 308 308 309 309
318 315 317 310 310 307 308 319 323 325 322 321 320 314 313 312 309 307 305 304 303 302 301 301 301 301 300 301 301 302 301 301 302 302 302 302 303 304 305 306 306 307 306 307
307 307 310 311 302 303 306 309 314 315 316 315 315 313 311 309 307 305 301 299 299 299 300 301 301 300 299 299 299 298 298 299 300 301 301 300 301 301 304 304 305 304 302 303
302 304 306 303 302 302 301 303 303 303 306 309 309 308 307 306 305 304 303 302 301 301 299 298 298 298 298 298 298 297 297 297 298 299 298 298 299 299 301 301 299 300 294 294
301 303 309 303 300 300 299 300 300 300 300 300 300 301 300 301 302 301 302 300 299 298 297 296 296 297 297 298 296 296 296 295 296 297 296 295 297 296 296 298 297 295 293 292
Wind_Speed
26 18 26 38 36 26 24 24 26 20 24 20 25 22 23 14 16 19 19 19 18 19 18 21 18 18 24 23 20 23 23 22 21 17 19 18 17 15 14 12 9 7 6 9
25 27 30 29 32 32 31 27 25 24 19 20 21 24 21 19 14 17 18 17 19 18 17 17 21 18 23 24 25 23 21 20 20 19 19 15 15 15 12 11 7 7 9 8
24 32 30 29 29 32 29 30 22 21 16 18 20 23 25 23 19 14 13 19 18 18 20 18 13 19 23 24 26 24 22 21 19 16 14 11 13 12 10 11 9 10 8 6
23 29 25 33 30 27 27 29 25 18 20 15 23 15 23 22 21 18 16 16 18 19 21 17 16 17 19 23 22 21 21 22 18 20 16 16 14 13 9 9 9 7 3 1
18 25 29 31 34 30 24 24 25 19 22 17 20 14 22 22 23 23 20 18 17 18 21 21 22 19 19 24 22 20 20 20 17 16 15 14 11 12 10 9 9 9 7 6
25 20 25 23 31 30 25 22 24 17 16 14 21 19 19 23 26 22 21 20 17 18 18 16 16 26 21 18 23 21 22 20 17 13 11 9 11 11 13 11 9 7 7 7
24 26 23 21 23 31 24 20 16 15 13 17 20 16 17 23 23 21 23 22 21 15 13 11 14 14 19 20 20 19 18 17 15 15 11 12 13 12 13 11 8 10 8 7
19 19 24 17 20 21 27 24 17 28 22 20 24 13 13 14 11 18 23 18 14 13 15 16 16 17 20 21 19 18 19 19 19 20 19 18 16 15 14 12 11 10 8 6
15 20 25 23 14 26 33 26 29 20 20 16 17 14 14 11 13 14 18 17 11 12 15 15 15 17 20 20 21 21 22 21 21 21 20 19 17 16 16 13 11 10 8 6
7 15 27 23 22 21 27 27 26 19 21 21 21 22 13 15 16 15 15 14 10 11 17 17 16 20 23 24 23 23 24 24 23 21 19 19 18 17 15 14 13 10 7 6
6 7 19 23 19 24 16 20 23 23 14 19 15 18 14 23 21 18 16 16 17 15 15 15 17 24 26 26 25 24 24 23 22 20 19 18 17 15 14 12 10 7 6 5
5 6 15 28 23 27 24 28 31 13 24 15 12 5 4 26 20 20 19 21 21 21 21 20 19 25 25 25 24 24 23 22 21 19 18 17 15 13 11 9 7 6 6 6
6 5 12 21 5 10 18 27 26 23 15 20 11 8 16 22 18 16 19 20 19 19 21 19 19 18 24 23 23 23 21 21 19 18 16 14 12 10 9 8 7 6 7 7
8 5 18 17 23 24 27 22 22 22 15 9 9 18 16 19 17 18 18 21 21 20 20 19 18 17 23 23 22 21 20 18 16 15 13 11 10 9 7 6 6 7 7 7
4 8 13 5 12 22 23 27 28 25 14 15 25 21 21 22 18 21 21 23 22 21 20 19 18 17 21 21 20 19 18 15 13 12 11 9 8 6 6 6 6 6 7 7
7 5 15 8 13 23 22 25 25 21 15 8 19 21 22 21 18 19 19 21 22 21 20 19 19 18 19 18 17 16 14 13 11 10 9 7 6 5 6 7 6 6 7 9
5 6 4 8 21 27 25 23 22 11 9 7 12 17 24 21 19 18 19 20 21 21 20 18 17 17 17 16 14 13 11 10 10 8 8 7 6 6 7 6 7 8 8 9
6 2 5 5 16 8 15 19 17 5 13 8 26 20 23 22 18 18 18 21 21 20 19 16 16 16 15 14 13 11 10 8 8 9 8 8 8 7 6 7 8 8 8 7
15 5 6 6 4 9 12 13 15 3 15 22 28 22 22 21 20 15 15 18 18 18 17 18 17 16 14 13 11 10 9 8 9 9 9 9 7 7 8 7 8 8 8 7
4 6 5 5 4 4 5 16 13 7 11 21 26 24 25 25 17 12 17 17 16 18 16 15 15 15 15 12 10 10 9 10 10 9 9 8 8 7 6 6 7 7 7 8
6 6 4 10 6 5 11 19 12 3 8 22 23 26 22 11 13 19 18 16 17 17 16 15 15 15 13 12 11 11 10 10 9 8 8 9 8 6 3 4 6 5 5 6
7 7 6 4 5 6 20 6 4 2 19 19 19 17 19 24 24 20 18 15 15 15 16 14 14 14 13 12 11 11 12 9 9 9 8 8 7 5 4 6 6 4 6 4
5 7 3 7 4 8 13 8 9 12 18 19 19 21 23 23 22 20 16 14 14 14 14 13 13 14 14 13 12 11 10 10 9 9 8 8 7 6 6 4 5 3 5 5
11 15 4 2 8 11 16 17 19 18 16 17 18 20 22 22 19 18 15 12 13 14 13 13 13 13 13 12 11 10 10 10 8 8 8 8 7 8 7 9 8 6 8 8
6 10 6 4 3 8 16 15 17 20 20 21 20 18 19 20 18 16 14 13 16 15 15 13 13 12 11 10 10 10 12 11 10 8 8 8 7 7 9 7 7 7 9 11
8 5 3 3 7 9 5 10 15 18 17 16 19 18 18 18 17 17 13 17 16 15 14 14 12 10 8 9 10 10 11 12 10 8 8 10 7 8 8 7 5 5 6 10
Wind_Direction
215 215 209 213 219 226 226 222 219 211 223 197 222 224 219 206 228 200 209 210 210 211 205 194 189 195 170 159 175 181 182 182 179 180 190 191 195 204 201 205 200 188 204 224
210 222 225 219 217 227 232 238 214 218 197 186 213 226 209 210 215 199 203 196 199 200 201 191 172 188 177 168 182 182 180 174 176 181 192 199 190 194 198 188 177 195 208 216
208 216 225 232 223 215 218 227 232 196 178 206 223 221 224 215 194 201 211 199 199 199 198 185 163 185 180 181 179 186 181 175 181 177 173 155 157 160 178 164 175 188 202 226
229 206 214 227 231 219 211 218 231 184 183 204 221 217 212 205 212 214 203 208 190 193 195 165 175 172 181 181 175 182 179 163 172 157 164 171 173 175 163 165 148 146 115 146
220 228 213 199 218 221 220 205 221 201 205 201 202 241 196 202 208 203 203 202 192 186 184 175 171 169 170 155 160 164 154 153 159 165 165 172 195 143 146 126 117 109 106 83
247 240 228 228 198 225 215 207 206 214 213 206 208 212 225 187 202 187 192 197 188 178 182 182 172 158 154 156 150 150 153 152 156 163 157 165 143 161 147 141 148 140 126 89
232 233 246 219 193 204 211 200 189 194 195 207 188 202 247 176 187 179 186 187 185 154 165 136 139 138 153 147 147 148 141 142 147 136 138 123 130 118 118 147 128 130 114 88
215 217 222 203 207 193 197 180 195 179 195 197 186 209 204 66 96 195 180 144 137 167 161 172 146 140 141 137 132 136 137 129 121 109 105 108 120 119 114 99 109 99 98 83
214 212 184 242 186 213 186 201 208 198 201 196 183 147 78 124 105 89 102 117 161 157 111 114 135 143 129 127 130 132 120 115 115 114 112 108 105 103 103 99 94 88 85 86
296 230 182 192 178 218 190 206 202 226 196 220 188 163 156 162 150 121 116 121 142 143 142 138 122 120 117 110 110 118 119 117 114 109 106 103 100 96 94 91 85 80 73 58
323 250 213 185 199 193 195 193 216 224 231 203 185 175 158 161 156 141 134 143 150 128 120 117 117 121 125 121 116 114 113 110 106 103 100 96 93 89 86 80 76 69 53 28
230 260 196 190 179 221 194 202 208 209 227 249 168 81 170 135 136 137 142 156 137 140 142 132 125 119 117 115 113 109 107 104 101 99 96 93 91 87 82 77 62 46 24 11
220 219 196 195 187 266 244 198 207 221 237 220 173 132 91 112 127 139 136 129 130 121 117 117 116 115 113 112 109 105 102 100 101 101 97 93 88 83 69 56 39 25 14 4
242 260 202 187 191 182 214 199 200 206 238 214 188 132 120 122 130 129 131 131 128 123 124 121 116 112 108 105 102 100 97 95 94 92 90 83 74 64 52 38 26 18 11 4
128 232 186 92 223 195 198 201 194 216 213 217 139 147 145 135 135 135 135 135 132 129 123 119 114 109 107 103 98 93 87 85 85 85 79 71 65 53 37 27 23 18 13 4
204 245 145 200 256 233 197 211 186 191 209 75 161 134 140 129 135 139 140 138 130 127 119 115 109 105 101 96 92 87 82 79 78 74 69 59 49 39 28 24 24 21 17 11
309 186 112 195 211 182 196 196 192 121 224 147 169 133 133 133 137 144 142 138 128 120 117 111 105 98 93 87 83 80 75 76 74 70 61 51 39 28 21 23 30 24 16 16
319 142 155 112 105 169 196 141 212 140 25 124 118 130 130 129 136 145 132 124 120 116 113 109 103 96 87 83 79 75 73 69 72 63 52 40 27 21 20 29 33 15 8 11
211 203 124 139 125 124 61 133 166 44 95 120 121 126 124 124 112 96 104 113 112 103 95 94 94 90 82 74 71 72 71 68 60 50 40 27 24 27 30 22 22 19 357 346
39 156 105 114 126 102 345 350 8 120 100 126 129 133 132 135 114 119 109 105 102 102 99 93 93 84 73 63 64 68 60 52 41 34 37 37 35 29 23 6 13 15 348 356
1 356 162 113 81 98 346 322 289 79 116 138 139 140 152 134 125 126 120 113 113 106 99 89 80 75 67 63 64 62 50 38 22 26 33 35 27 1 19 8 27 8 358 11
5 323 28 19 99 76 345 353 25 259 128 125 129 138 105 115 122 128 118 114 105 104 95 90 88 78 65 58 60 56 41 21 21 26 27 23 11 350 15 19 20 15 10 16
37 2 30 32 64 345 334 348 88 105 116 132 121 120 125 124 122 115 112 108 106 95 89 88 85 78 65 57 50 49 23 20 22 26 23 17 355 3 3 26 8 0 25 7
1 13 75 178 18 18 21 33 64 78 86 104 109 115 117 116 117 112 113 112 105 101 96 88 82 77 68 57 50 42 23 19 22 26 22 13 7 355 18 31 14 33 17 9
359 309 45 77 102 64 28 44 64 67 65 84 89 100 112 119 118 115 113 110 103 95 86 83 82 78 71 64 52 39 31 27 25 28 23 20 21 9 17 60 39 38 45 42
346 330 333 69 42 89 40 57 82 86 85 87 95 96 98 107 107 107 98 94 97 95 91 87 81 77 71 66 57 43 36 34 28 29 24 26 22 27 13 12 108 69 57 50